Location: Austin
(30.3000°N, 97.7500°W)
Time: 12:24:09
(UTC-06:00)

PSLV R/B - Pass Details

Date: 04 November 2025
Orbit: 561 x 591 km, 98.0° (Epoch: 07 November)

Event Time Altitude Azimuth Distance (km) Brightness Sun altitude
Rises 18:54:32 0° 159° (SSE) 2,789 6.8 -16.3°
Reaches altitude 10° 18:56:42 10° 155° (SSE) 1,889 5.9 -16.8°
Maximum altitude 19:00:43 59° 76° (ENE) 670 3.4 -17.6°
Drops below altitude 10° 19:04:44 10° 357° (N) 1,883 6.0 -18.5°
Sets 19:06:54 0° 353° (N) 2,779 6.9 -18.9°
